{"data":{"norad_id":68273,"intl_designator":"2026-055M","name":"STARLINK-37019","alt_names":[],"object_type":"PAYLOAD","status":"ACTIVE","operator":null,"country":"US","launch_date":"2026-03-19","launch_site_code":"AFETR","launch_vehicle":null,"mission":null,"orbit_class":"UNKNOWN","rcs_meters":null,"size_class":null,"mass_kg":null,"dimensions":null,"purposes":["comms"],"wikipedia_slug":null,"has_3d_model":false,"image_url":null,"decayed_at":null,"tle_current":{"epoch":"2026-05-24T21:40:56.784000Z","epoch_age_seconds":77290,"freshness":"FRESH","line1":"1 68273U 26055M   26144.90343500  .00024205  00000+0  70196-3 0  9993","line2":"2 68273  53.1599 324.2680 0000659  73.8677 286.2399 15.35427452 11619","mean_motion":15.35427452,"eccentricity":6.59e-5,"inclination_deg":53.1599,"raan_deg":324.268,"arg_perigee_deg":73.8677,"mean_anomaly_deg":286.2399,"bstar":0.00070196,"rev_number":1161,"period_min":93.784958587545,"perigee_km":459.2005291374,"apogee_km":460.10174961417,"semimajor_km":6837.7881393758,"source":"CELESTRAK","updated_at":"2026-05-25T13:38:21.892301Z"}}}